Location: Brabourne
(51.1333°N, 1.0000°E)
Time: 17:13:47
(UTC+00:00)

METEOR 2-15 DEB - Visible Passes

Search period start: 11 August 2022 00:00
Search period end: 21 August 2022 00:00
Orbit: 888 x 916 km, 82.5° (Epoch: 10 August)

Date Brightness Start Highest point End Pass type
(mag) Time Alt. Az. Time Alt. Az. Time Alt. Az.
11 Aug ? 20:18:45 10° NNW 20:24:36 64° W 20:30:27 10° S visible
11 Aug ? 22:05:26 10° WNW 22:07:17 11° WNW 22:09:08 10° W visible
12 Aug ? 20:22:12 10° NNW 20:27:57 54° W 20:33:42 10° SSW visible
13 Aug ? 20:25:40 10° NNW 20:31:16 45° W 20:36:52 10° SSW visible
14 Aug ? 20:29:08 10° NNW 20:34:34 38° W 20:39:59 10° SSW visible
15 Aug ? 20:32:40 10° NNW 20:37:50 32° W 20:43:01 10° SSW visible
16 Aug ? 20:36:13 10° NNW 20:41:06 27° W 20:46:00 10° SW visible
17 Aug ? 20:39:49 10° NNW 20:44:21 23° W 20:48:52 10° SW visible
18 Aug ? 20:43:29 10° NW 20:47:34 20° W 20:51:39 10° SW visible
19 Aug ? 20:47:15 10° NW 20:50:46 16° WNW 20:54:19 10° WSW visible
20 Aug ? 20:51:09 10° NW 20:53:57 14° WNW 20:56:45 10° WSW visible
